Location: Twentynine Palms Airport
(34.1316°N, 115.9458°W)
Time: 19:21:10
(UTC-07:00)

Oscar 19 - Visible Passes

Search period start: 26 May 2017 00:00
Search period end: 05 June 2017 00:00
Orbit: 774 x 790 km, 98.6° (Epoch: 26 May)

Date Brightness Start Highest point End Pass type
(mag) Time Alt. Az. Time Alt. Az. Time Alt. Az.
26 May 11.1 02:09:39 10° NNE 02:13:54 59° NE 02:13:54 59° NE visible
26 May 12.8 03:51:53 10° NW 03:53:26 11° WNW 03:54:28 11° WNW visible
27 May 12.1 01:38:14 10° NNE 01:41:44 31° ENE 01:41:44 31° ENE visible
27 May 12.0 03:17:59 10° NNW 03:22:00 23° WNW 03:22:17 23° WNW visible
28 May 12.9 01:07:42 10° NE 01:09:33 15° ENE 01:09:33 15° ENE visible
28 May 11.1 02:45:28 10° N 02:50:06 47° WNW 02:50:06 47° WNW visible
29 May 10.9 02:13:30 10° NNE 02:17:55 65° NNE 02:17:55 65° NNE visible
29 May 12.8 03:56:38 10° NW 03:57:14 10° WNW 03:57:49 10° WNW visible
30 May 11.9 01:42:01 10° NNE 01:45:44 34° ENE 01:45:44 34° ENE visible
30 May 12.1 03:21:59 10° NNW 03:25:49 21° WNW 03:26:18 21° WNW visible
31 May 12.8 01:11:20 10° NE 01:13:33 17° ENE 01:13:33 17° ENE visible
31 May 11.2 02:49:23 10° N 02:54:06 43° WNW 02:54:06 43° WNW visible
01 Jun 10.8 02:17:21 10° NNE 02:21:55 71° NNE 02:21:55 71° NNE visible
02 Jun 11.7 01:45:48 10° NNE 01:49:44 38° ENE 01:49:44 38° ENE visible
02 Jun 12.2 03:26:00 10° NNW 03:29:37 20° WNW 03:30:17 19° WNW visible
03 Jun 12.7 01:14:58 10° NE 01:17:32 18° ENE 01:17:32 18° ENE visible
03 Jun 11.3 02:53:18 10° N 02:58:04 40° WNW 02:58:06 40° WNW visible
04 Jun 10.7 02:21:12 10° NNE 02:25:54 74° N 02:25:54 74° N visible
